Retour au catalogue

STARLINK-35125

ActifCommunicationsSSO
NORAD 65534·PAYLOAD·🇺🇸 United States

Lancé Sep 6, 2025 depuis Cape Canaveral Space Force Station

Loading…

Prochains Passages (prochaines 24 heures)

TLE

FraisSource: CelesTrak SupGP

Époque: Sep 14, 2026, 14:10 UTC

1 65534C 25200Q   26257.59076389  .00096136  00000+0  29856-2 0  2574
2 65534  97.2845 324.0842 0000983  94.6784  36.2093 15.33376632    14

Suivez STARLINK-35125 en temps réel avec AllMySat

Download on the App Store